Location: Bussy-Saint-Georges
(48.8410°N, 2.7017°E)
Time: 16:16:12
(UTC+00:00)

SL-16 R/B - Pass Details

Date: 18 October 2021
Orbit: 842 x 846 km, 71.0° (Epoch: 29 November)

Event Time Altitude Azimuth Distance (km) Brightness Sun altitude
Rises 19:17:50 0° 202° (SSW) 3,387 5.5 -24.4°
Reaches altitude 10° 19:20:16 10° 202° (SSW) 2,457 4.7 -24.8°
Maximum altitude 19:25:54 81° 117° (ESE) 861 2.0 -25.7°
Enters shadow 19:27:26 50° 38° (NE) 1,066 2.5 -25.9°
